Presure
217 200 209 196 191 199 198 189 211 202 156 195 189 179 182 157 181 168 197 188 193 192 173 204 198 165 179 160 170 144 184 180 198 186 193 182 182 176 172 179 185 173 172
209 217 222 212 193 200 200 181 196 180 197 188 184 168 189 192 162 191 204 177 177 186 171 157 152 174 191 204 213 165 182 184 210 204 186 180 177 171 168 163 188 162 181
243 220 205 217 213 201 201 203 179 212 182 188 194 196 169 175 189 161 188 187 180 182 153 195 163 198 179 172 220 234 219 163 191 205 181 173 174 175 171 172 174 172 169
329 298 224 212 208 214 207 190 199 205 220 193 185 194 178 182 181 184 199 182 142 151 162 192 160 177 156 191 156 204 201 233 188 195 186 177 175 174 176 160 172 168 178
326 324 310 298 250 209 208 212 196 206 187 220 207 190 193 182 201 180 188 191 181 192 173 204 157 192 208 180 199 144 215 245 172 184 196 181 174 180 172 170 169 172 175
317 340 312 299 295 281 255 235 220 221 202 193 191 193 188 194 186 208 172 184 179 194 189 178 180 189 180 190 163 160 175 202 205 179 190 176 184 174 179 170 166 175 170
311 304 321 298 297 281 273 255 245 238 227 210 189 213 207 198 198 192 168 184 187 187 169 179 181 180 195 186 211 200 157 162 207 201 192 162 149 170 173 172 167 168 156
318 310 315 307 294 279 270 267 253 240 229 231 215 210 202 207 184 210 194 181 192 194 200 173 183 183 199 202 164 208 176 147 176 207 190 165 180 177 164 173 170 165 163
306 312 327 320 303 294 278 265 263 262 233 228 228 213 188 199 198 215 183 219 201 180 180 177 182 188 180 168 175 189 173 135 142 132 135 187 171 179 170 168 174 173 166
301 294 303 311 307 295 283 273 274 267 259 255 228 236 206 209 206 210 176 209 183 184 186 194 198 201 192 189 200 196 175 192 172 197 162 180 180 177 177 156 167 161 174
289 298 296 305 324 297 299 273 280 272 258 254 251 241 242 226 217 213 215 196 212 179 193 181 179 208 196 181 172 191 187 178 182 147 148 157 209 180 180 172 170 165 163
303 294 294 306 302 313 289 296 275 265 251 257 249 244 247 235 234 233 234 240 208 237 188 194 185 184 192 160 191 166 196 174 222 186 163 163 159 141 181 171 179 168 167
282 294 306 289 292 297 314 309 268 265 265 254 258 261 241 241 241 234 228 228 246 217 225 208 203 192 199 183 208 203 190 186 167 186 187 151 190 209 186 178 159 178 170
282 293 280 298 303 291 279 332 306 279 271 277 271 249 251 247 244 249 231 239 237 220 222 226 204 202 200 186 189 201 164 192 185 160 198 186 182 225 214 174 178 175 171
270 283 292 278 282 287 281 317 310 280 286 273 267 252 248 250 242 242 261 246 263 245 221 213 225 206 200 208 197 206 211 228 190 194 191 157 231 175 168 188 202 188 197
282 287 285 275 294 290 298 301 305 284 295 277 255 266 256 251 251 253 239 257 239 249 242 238 219 238 214 206 208 202 203 204 213 208 164 183 151 212 203 150 187 168 195
265 273 284 275 275 277 270 253 288 298 283 285 292 275 266 261 271 256 262 247 246 241 240 240 234 226 229 231 210 214 206 232 223 200 210 203 186 151 161 169 202 172 193
270 283 278 264 276 258 265 265 268 278 283 284 277 272 267 269 264 252 256 250 243 242 241 236 228 227 234 231 231 241 229 215 215 226 234 220 217 208 186 170 197 196 180
273 270 276 298 280 274 257 258 263 265 269 276 275 249 245 264 261 265 262 257 246 241 232 236 235 229 233 230 226 232 213 215 240 227 233 231 217 215 202 198 196 158 195
280 281 265 271 291 290 274 265 269 289 278 268 266 274 269 267 274 247 262 250 247 243 243 239 227 232 231 231 227 216 233 234 234 222 235 225 218 216 165 193 201 208 173
282 280 275 275 273 268 273 274 271 291 285 292 278 269 270 266 268 256 266 243 249 244 249 230 235 238 232 232 217 231 229 236 221 225 235 225 223 224 215 221 212 212 201
266 277 274 277 254 258 279 271 295 273 262 299 303 287 269 275 271 265 269 254 260 245 252 242 242 236 229 237 223 233 239 236 229 230 230 227 229 229 215 224 225 211 213
268 270 265 294 282 270 286 258 272 277 273 263 317 285 272 302 302 286 289 279 264 263 251 248 252 238 241 238 238 239 250 226 239 237 230 225 226 219 220 219 216 212 216
276 275 271 277 275 268 273 271 269 266 273 273 279 314 298 272 268 298 299 303 292 286 284 283 252 255 249 241 239 232 236 239 242 237 245 234 235 229 229 225 220 223 224
280 277 277 277 275 276 278 273 271 282 283 262 277 264 278 289 279 277 275 285 290 291 279 290 290 293 278 280 248 244 238 248 240 239 245 245 245 246 238 236 234 230 227
293 288 288 287 281 275 275 272 271 269 270 274 277 262 269 283 285 276 277 275 279 279 281 288 293 291 290 286 281 259 238 242 243 249 242 244 246 249 252 258 247 251 252
Wind_Speed
119 124 123 125 123 116 112 114 106 107 89 104 100 96 93 76 87 71 82 77 77 69 71 64 60 75 65 72 72 68 80 81 88 84 83 84 86 88 87 85 84 84 85
127 121 122 123 124 118 120 112 111 110 110 103 100 83 99 98 83 90 85 72 73 73 66 85 81 75 56 59 63 74 78 81 88 88 83 86 85 89 89 91 86 87 83
130 129 126 126 123 123 121 117 113 112 117 113 109 107 87 99 99 75 88 86 79 78 87 78 83 66 63 77 55 57 76 77 84 89 82 89 91 95 91 91 92 90 91
87 105 129 128 126 126 126 122 122 120 118 119 111 115 96 104 101 95 97 89 84 90 86 80 87 76 92 76 80 69 81 64 88 92 88 91 96 96 92 90 93 96 92
82 90 96 104 134 130 131 131 130 127 123 118 117 114 115 109 111 100 103 100 94 94 81 89 93 82 77 75 71 80 71 64 85 92 96 91 97 98 97 97 97 96 96
77 90 93 98 101 110 128 132 130 131 130 125 123 117 111 118 109 109 91 101 98 101 101 87 86 90 86 85 85 92 81 81 94 92 98 92 98 100 99 101 99 99 100
75 80 92 95 101 102 108 121 124 128 131 124 122 126 123 114 121 115 88 107 106 109 90 93 91 89 93 81 85 83 88 85 83 100 101 89 86 100 102 104 103 103 90
70 76 82 94 99 102 104 107 119 127 130 126 130 131 128 121 111 117 120 104 114 112 109 91 98 95 101 97 97 86 95 90 91 92 103 94 104 108 100 106 108 107 105
67 71 73 86 98 103 105 106 109 114 126 127 130 135 122 126 123 125 109 113 120 105 104 96 97 103 90 98 93 85 102 84 86 81 82 108 105 113 110 107 109 114 112
65 70 74 79 88 98 105 106 108 108 112 120 129 129 127 130 124 125 104 118 113 114 113 117 117 113 107 99 100 97 98 98 100 89 94 107 114 113 119 101 113 108 116
64 66 71 76 76 91 99 103 107 108 110 113 118 123 125 133 128 129 125 126 122 107 124 106 101 116 115 97 97 99 105 100 99 104 102 102 103 120 119 121 121 118 113
50 62 67 70 76 79 96 101 107 109 111 114 116 115 118 126 128 127 124 119 121 117 122 127 116 108 114 107 110 105 108 99 95 102 109 111 99 94 125 117 127 123 125
56 53 50 67 70 76 76 87 102 107 110 110 111 111 121 122 125 126 124 123 123 120 119 129 128 123 125 111 117 116 104 102 113 100 100 105 101 102 122 128 116 133 131
58 55 59 49 55 66 74 55 85 102 108 109 112 117 119 121 118 124 124 122 120 121 119 126 128 126 122 114 120 123 118 108 107 126 109 106 113 102 107 112 134 136 133
54 55 57 64 64 63 70 48 66 91 98 106 113 116 111 116 118 118 118 116 112 113 123 121 127 128 127 126 119 123 121 117 116 119 109 125 107 115 124 116 116 136 131
51 52 57 61 56 56 50 54 63 79 73 102 104 111 110 106 108 110 110 112 113 111 112 118 124 119 133 129 128 119 121 121 122 124 129 116 120 114 117 115 120 127 131
59 57 57 60 60 61 68 81 59 64 81 85 82 97 105 110 109 110 110 111 107 110 110 115 115 116 118 122 135 130 129 119 131 123 123 124 129 120 118 122 121 131 127
57 59 59 63 64 69 69 72 72 67 66 80 90 94 96 100 97 103 107 107 107 112 114 115 115 114 112 112 117 119 120 126 129 126 121 124 127 130 136 133 125 128 134
59 60 60 64 67 71 73 73 74 77 76 73 81 93 94 94 96 92 98 105 109 116 113 117 116 115 118 116 117 123 123 125 126 122 124 125 127 133 133 133 135 127 131
63 60 63 63 62 63 73 73 73 75 80 83 84 84 88 89 89 99 99 106 112 116 120 118 115 117 120 121 120 121 126 127 128 122 127 128 130 133 127 133 137 140 146
63 64 65 65 64 65 66 67 68 66 70 81 83 85 89 90 93 102 105 107 112 110 115 112 115 120 119 121 117 124 123 126 125 129 131 132 135 137 137 142 146 145 142
57 63 64 65 64 66 66 67 58 69 74 67 77 84 86 89 93 97 103 108 110 108 112 112 118 120 120 123 119 125 126 126 129 133 134 135 138 142 139 141 144 147 147
60 61 61 68 67 67 61 67 65 65 69 74 67 77 79 78 82 93 94 104 109 112 113 114 117 122 123 124 124 119 122 124 130 133 138 138 140 140 142 143 146 146 150
65 65 62 64 64 64 64 66 69 68 66 65 64 71 80 80 81 80 79 80 88 90 96 100 112 119 125 125 125 121 125 128 127 130 130 140 145 147 148 148 148 153 153
71 71 70 70 68 69 69 66 66 67 64 70 67 72 69 74 79 81 81 78 79 83 90 87 93 97 108 116 126 130 126 131 127 130 132 133 136 142 149 152 154 156 156
79 80 81 82 76 74 73 71 71 70 71 71 72 75 72 71 80 82 82 81 81 82 84 86 89 89 92 101 110 126 125 129 129 134 133 136 136 137 138 140 149 149 151
Wind_Direction
235 242 240 245 248 248 240 248 236 235 240 242 245 255 248 231 241 245 245 245 248 246 223 245 237 237 226 230 231 238 226 228 223 231 226 232 233 239 242 244 244 246 248
237 235 236 236 243 239 242 252 240 253 237 241 246 248 248 244 231 247 242 245 242 245 224 234 237 226 227 227 230 235 225 229 220 220 224 230 234 238 242 247 242 252 249
236 236 237 236 236 236 237 235 249 234 248 242 239 236 251 236 244 238 245 244 247 245 229 240 231 240 225 239 239 234 220 238 229 220 224 229 232 234 238 241 243 243 248
229 235 236 236 235 235 233 243 234 234 238 237 243 234 244 243 245 243 237 240 238 236 226 243 232 225 237 239 240 227 225 227 223 224 224 225 230 234 234 245 242 248 243
227 225 225 230 236 237 236 235 237 235 242 236 233 238 234 240 237 242 240 236 243 241 241 245 225 243 246 223 231 240 226 235 230 225 222 222 228 230 232 236 240 243 245
224 224 221 223 224 228 234 237 237 238 235 237 238 237 241 232 238 237 241 240 241 238 241 238 233 241 229 240 235 235 228 228 223 226 221 227 223 231 229 236 241 240 244
221 220 220 218 219 222 225 230 233 233 236 238 240 233 232 237 233 235 238 241 239 239 237 241 241 239 243 230 240 233 234 235 228 223 221 235 244 232 232 232 238 241 247
223 220 221 219 217 217 221 223 227 229 233 234 235 235 235 234 243 236 234 240 237 236 235 242 240 243 244 243 223 236 226 244 226 227 225 233 225 227 239 233 235 242 247
223 222 224 224 219 217 216 220 223 226 230 232 233 235 240 238 238 236 240 235 234 241 242 242 243 243 237 229 233 233 225 245 240 244 240 224 231 226 233 238 235 236 242
221 220 222 223 221 218 216 218 219 220 224 228 231 232 236 239 237 238 238 237 240 241 242 238 239 240 243 243 239 238 228 229 225 228 241 232 226 229 228 240 237 245 238
218 221 221 222 226 219 219 217 218 218 220 223 225 231 231 235 237 238 239 237 237 239 238 241 243 240 241 243 235 243 245 232 228 246 249 243 232 229 229 232 235 240 245
222 219 221 223 221 223 217 219 216 217 221 221 225 228 226 231 232 234 235 233 238 235 240 241 243 245 245 227 244 225 248 239 245 228 232 235 248 252 230 235 233 238 240
217 220 222 221 222 221 223 222 217 218 220 223 222 222 225 225 229 233 235 236 234 236 232 239 240 241 242 241 244 244 242 239 239 237 239 247 240 237 231 233 243 235 239
217 214 219 221 227 221 218 225 223 221 222 223 220 222 224 225 228 230 233 233 234 234 235 233 240 241 240 240 239 244 229 245 237 233 247 243 232 241 239 240 235 237 239
217 219 218 221 222 222 219 221 220 221 223 221 220 224 227 226 230 231 231 234 225 231 235 236 235 238 242 243 241 243 244 244 243 245 247 239 242 238 235 240 237 236 238
220 224 220 223 215 223 223 219 217 219 225 223 225 225 227 228 229 230 233 229 233 229 233 233 237 235 238 241 243 242 243 245 245 244 242 241 248 242 240 251 239 241 240
216 221 219 220 219 220 221 219 222 224 222 221 225 227 228 229 232 230 230 229 230 230 231 229 232 234 235 237 241 242 242 238 241 241 240 242 236 249 249 248 241 239 243
217 222 220 219 216 222 223 224 223 222 224 226 228 226 225 228 231 228 230 228 230 231 229 229 231 232 231 233 232 232 231 233 239 241 241 238 238 239 239 243 241 241 239
221 222 223 226 223 222 226 226 227 225 224 223 226 228 230 231 230 230 230 229 228 229 229 229 229 230 231 231 231 230 234 238 236 235 235 233 234 236 238 240 242 254 242
222 223 223 225 228 226 226 229 229 228 228 229 227 226 226 230 230 229 230 226 227 228 228 229 229 230 231 231 231 233 235 235 232 235 235 232 232 233 249 241 241 242 244
221 222 224 224 225 225 227 228 229 231 231 230 231 230 231 231 232 231 231 229 231 231 232 231 232 233 231 233 232 236 233 234 232 234 234 232 233 233 234 236 239 241 243
223 227 227 226 224 227 228 230 228 229 230 232 232 234 235 235 232 234 235 234 234 235 235 234 235 234 234 235 235 238 237 234 233 233 233 233 234 234 234 237 236 239 242
231 229 227 231 230 227 231 229 229 228 228 230 231 234 234 233 236 238 238 238 238 238 237 237 238 236 236 236 237 238 241 235 238 236 234 234 234 235 235 236 238 240 242
236 237 237 238 236 233 233 234 234 234 233 232 233 230 230 236 238 238 241 242 242 241 241 241 237 238 238 238 239 237 238 238 237 238 239 237 237 237 237 238 239 240 242
237 239 241 241 241 241 242 241 240 245 240 234 234 233 236 235 238 240 241 242 242 243 240 241 242 243 241 244 239 241 241 242 241 241 242 240 241 240 239 240 240 242 243
237 239 239 240 241 242 243 243 243 243 243 241 237 235 237 238 239 241 242 243 244 245 246 248 250 250 248 245 244 241 242 243 244 245 244 245 244 244 244 246 243 244 246